Holy Cross AP, Holy Cross, AK, AK

10:45 AM AKDT on March 27, 2017 (GMT -0800)
Holy Cross AP, Holy Cross, AK

Weather History for PAHC - April, 2014

Change the Weather History Date:

Tuesday, April 29, 2014

  Actual Average (PANV) Record (PANV)
Temperature  
Mean Temperature 38 °F -  
Max Temperature 43 °F 38 °F 57 °F (2005)
Min Temperature 34 °F 27 °F 12 °F (2008)
Degree Days  
Heating Degree Days 26    
Moisture  
Dew Point 32 °F    
Average Humidity 78    
Maximum Humidity 93    
Minimum Humidity 53    
Precipitation  
Precipitation 0.00 in - - ()
Sea Level Pressure  
Sea Level Pressure 30.07 in    
Wind  
Wind Speed 5 mph (SW)    
Max Wind Speed 9 mph    
Max Gust Speed 17 mph    
Visibility 9 miles    
Events Rain    
Averages and records for this station are not official NWS values.
T = Trace of Precipitation, MM = Missing Value Source: NWS Daily Summary

Daily Weather History Graph

Daily Weather History Graph

Search for Another Location

Airport or City:

Trip Planner

Search our weather history database for the weather conditions in past years. The results will help you decide how hot, cold, wet, or windy it might be!

Date:

Astronomy

Apr. 29, 2014 Rise Set
Actual Time 6:29 AM AKDT 10:44 PM AKDT
Civil Twilight 5:31 AM AKDT 11:44 PM AKDT
Nautical Twilight 3:48 AM AKDT 1:32 AM AKDT
Astronomical Twilight Sun does not rise Sun does not rise
Moon 6:58 AM AKDT (4/29) 11:45 PM AKDT (4/29)
Length of Visible Light 18h 13m
Length of Day
16h 15m
New Moon, 0% of the Moon is Illuminated
Apr 29
New Moon
May 6
First Quarter
May 14
Full
May 21
Last Quarter
May 28
New

Hourly Weather History & Observations

Time (AKDT) Temp. Windchill Dew Point Humidity Pressure Visibility Wind Dir Wind Speed Gust Speed Precip Events Conditions
12:56 AM 42.8 °F 41.1 °F 26.6 °F 53% 29.88 in 10.0 mi SSW 3.5 mph - N/A Rain Light Rain
1:56 AM 41.0 °F - 30.0 °F 65% 29.91 in 10.0 mi Calm Calm - 0.00 in Rain Light Rain
2:56 AM 39.9 °F 34.5 °F 30.0 °F 68% 29.94 in 10.0 mi SSW 8.1 mph - 0.00 in Rain Light Rain
3:56 AM 39.2 °F 34.2 °F 30.2 °F 70% 29.93 in 10.0 mi SSW 6.9 mph - N/A Rain Light Rain
4:56 AM 37.9 °F 31.5 °F 30.0 °F 73% 29.95 in 10.0 mi SW 9.2 mph 17.3 mph 0.00 in Rain Light Rain
5:56 AM 37.9 °F 32.7 °F 30.0 °F 73% 29.96 in 10.0 mi SW 6.9 mph - 0.00 in Rain Light Rain
6:56 AM 36.9 °F 30.1 °F 32.0 °F 83% 29.98 in 10.0 mi SSW 9.2 mph - 0.00 in Rain Light Rain
7:17 AM 37.4 °F 32.8 °F 32.0 °F 81% 29.98 in 7.0 mi SSW 5.8 mph 16.1 mph 0.00 in Rain Light Rain
7:56 AM 34.9 °F 29.9 °F 32.9 °F 92% 30.01 in 3.0 mi SSW 5.8 mph - 0.00 in Rain Light Rain
8:27 AM 35.6 °F 30.7 °F 33.8 °F 93% 29.99 in 2.5 mi SSW 5.8 mph - 0.00 in Rain Light Rain
8:43 AM 35.6 °F - 33.8 °F 93% 30.00 in 4.0 mi Calm Calm - 0.00 in Rain Light Rain
8:56 AM 34.9 °F 32.0 °F 32.9 °F 92% 30.02 in 5.0 mi Variable 3.5 mph - 0.00 in Rain Light Rain
9:56 AM 35.6 °F 29.2 °F 33.8 °F 93% 30.03 in 10.0 mi SSW 8.1 mph - N/A   Overcast
10:56 AM 36.0 °F 29.0 °F 34.0 °F 93% 30.06 in 10.0 mi SW 9.2 mph - N/A   Overcast
11:56 AM 36.9 °F 31.4 °F 34.0 °F 89% 30.09 in 10.0 mi SW 6.9 mph - N/A   Overcast
12:56 PM 36.9 °F 33.1 °F 34.0 °F 89% 30.12 in 10.0 mi Variable 4.6 mph - N/A   Overcast
1:56 PM 37.9 °F 33.5 °F 34.9 °F 89% 30.13 in 10.0 mi South 5.8 mph - N/A   Overcast
2:26 PM 39.2 °F 33.6 °F 33.8 °F 81% 30.12 in 10.0 mi SSW 8.1 mph - N/A   Overcast
2:56 PM 41.0 °F 36.4 °F 34.0 °F 76% 30.14 in 10.0 mi SSW 6.9 mph - N/A   Overcast
3:56 PM 41.0 °F 35.2 °F 33.8 °F 76% 30.14 in 10.0 mi SSW 9.2 mph - N/A   Overcast
4:21 PM 42.8 °F 38.6 °F 33.8 °F 70% 30.14 in 10.0 mi WSW 6.9 mph - N/A   Mostly Cloudy
4:56 PM 43.0 °F 39.5 °F 32.9 °F 68% 30.16 in 10.0 mi SW 5.8 mph - N/A   Overcast
5:56 PM 43.9 °F 40.5 °F 32.9 °F 65% 30.17 in 10.0 mi SW 5.8 mph - 0.00 in   Mostly Cloudy
6:56 PM 43.9 °F 41.3 °F 32.0 °F 63% 30.18 in 10.0 mi SW 4.6 mph - N/A   Overcast
7:56 PM 43.0 °F 38.2 °F 32.0 °F 65% 30.19 in 10.0 mi SW 8.1 mph - N/A   Overcast
8:56 PM 41.9 °F 36.9 °F 32.0 °F 68% 30.20 in 10.0 mi SW 8.1 mph - N/A   Scattered Clouds
9:56 PM 41.0 °F - 32.9 °F 73% 30.21 in 10.0 mi Calm Calm - N/A   Clear
10:56 PM 39.9 °F - 32.9 °F 76% 30.22 in 10.0 mi Calm Calm - N/A   Clear
11:56 PM 38.8 °F - 32.9 °F 79% 30.23 in 10.0 mi Calm Calm - N/A   Clear